TimeMDT,TemperatureF,Dew PointF,Humidity,Sea Level PressureIn,VisibilityMPH,Wind Direction,Wind SpeedMPH,Gust SpeedMPH,PrecipitationIn,Events,Conditions,WindDirDegrees,DateUTC
12:53 AM,64.9,39.9,40,30.04,6.0,North,4.6,-,N/A,,Haze,350,2013-06-29 06:53:00
1:53 AM,62.1,39.0,43,30.05,7.0,NNE,8.1,-,N/A,,Clear,20,2013-06-29 07:53:00
2:53 AM,59.0,39.9,49,30.04,7.0,Calm,Calm,-,N/A,,Clear,0,2013-06-29 08:53:00
3:53 AM,57.0,39.9,53,30.04,7.0,North,4.6,-,N/A,,Clear,10,2013-06-29 09:53:00
4:53 AM,55.0,39.0,55,30.07,7.0,NW,4.6,-,N/A,,Clear,310,2013-06-29 10:53:00
5:53 AM,54.0,37.9,55,30.07,6.0,Calm,Calm,-,N/A,,Haze,0,2013-06-29 11:53:00
6:53 AM,55.9,39.0,53,30.09,5.0,Calm,Calm,-,N/A,,Haze,0,2013-06-29 12:53:00
7:53 AM,62.1,42.1,48,30.06,4.0,Calm,Calm,-,N/A,,Haze,0,2013-06-29 13:53:00
8:53 AM,68.0,44.1,42,30.06,5.0,North,6.9,-,N/A,,Haze,350,2013-06-29 14:53:00
9:53 AM,75.9,42.1,30,30.04,5.0,East,3.5,-,N/A,,Haze,90,2013-06-29 15:53:00
10:53 AM,81.0,42.1,25,30.02,9.0,Variable,5.8,-,N/A,,Clear,0,2013-06-29 16:53:00
11:53 AM,84.0,41.0,22,30.00,10.0,Calm,Calm,-,N/A,,Clear,0,2013-06-29 17:53:00
12:53 PM,87.1,39.0,18,29.96,10.0,Calm,Calm,-,N/A,,Clear,0,2013-06-29 18:53:00
1:46 PM,84.2,39.2,20,30.26,10.0,NE,12.7,-,N/A,Thunderstorm,Clear,40,2013-06-29 19:46:00
1:53 PM,84.0,39.9,21,29.97,10.0,NE,15.0,-,N/A,Thunderstorm,Clear,40,2013-06-29 19:53:00
2:04 PM,82.4,41.0,23,30.27,10.0,NE,19.6,24.2,N/A,,Partly Cloudy,40,2013-06-29 20:04:00
2:17 PM,78.8,39.2,24,30.27,10.0,NNE,28.8,36.8,N/A,Thunderstorm,Thunderstorm,20,2013-06-29 20:17:00
2:35 PM,75.2,42.8,31,30.24,6.0,East,16.1,28.8,0.02,Rain,Rain,80,2013-06-29 20:35:00
2:43 PM,78.8,41.0,26,30.24,10.0,SE,12.7,21.9,0.02,Rain,Light Rain,130,2013-06-29 20:43:00
2:53 PM,73.9,48.0,40,30.00,10.0,NNW,11.5,19.6,0.02,,Scattered Clouds,340,2013-06-29 20:53:00
3:10 PM,73.4,51.8,47,30.26,10.0,North,13.8,-,N/A,,Scattered Clouds,10,2013-06-29 21:10:00
3:23 PM,71.6,51.8,50,30.28,10.0,North,15.0,-,N/A,Thunderstorm,Mostly Cloudy,360,2013-06-29 21:23:00
3:45 PM,71.6,46.4,41,30.27,10.0,ENE,13.8,-,N/A,,Overcast,60,2013-06-29 21:45:00
3:53 PM,73.0,45.0,37,30.01,10.0,East,15.0,-,0.00,Rain,Light Rain,80,2013-06-29 21:53:00
4:00 PM,73.4,44.6,36,30.24,10.0,East,10.4,20.7,0.00,Rain,Light Rain,100,2013-06-29 22:00:00
4:53 PM,75.0,46.0,36,30.03,10.0,NNE,8.1,-,0.00,,Partly Cloudy,30,2013-06-29 22:53:00
5:53 PM,75.0,48.0,38,30.02,10.0,WSW,6.9,-,N/A,,Scattered Clouds,240,2013-06-29 23:53:00
6:53 PM,75.0,46.9,37,29.97,10.0,East,4.6,-,N/A,,Clear,100,2013-06-30 00:53:00
7:53 PM,73.9,46.9,38,29.97,10.0,East,3.5,-,N/A,,Clear,90,2013-06-30 01:53:00
8:53 PM,68.0,46.0,45,30.01,10.0,ENE,9.2,-,N/A,,Clear,70,2013-06-30 02:53:00
9:53 PM,69.1,44.1,40,30.00,10.0,Calm,Calm,-,N/A,,Clear,0,2013-06-30 03:53:00
10:53 PM,66.9,46.0,47,30.00,10.0,Calm,Calm,-,N/A,,Clear,0,2013-06-30 04:53:00
11:53 PM,63.0,48.0,58,29.99,10.0,North,8.1,-,N/A,,Clear,360,2013-06-30 05:53:00